Regional Weather Roundup
Issued by NWS Midland/Odessa, TX

Home | Current Version | Previous Version | Text Only | Print | Product List | Glossary On
Versions: 1 2 3 4 5 6 7 8 9 10 11 12 13 14 15 16 17 18 19 20 21 22 23 24 25 26 27 28 29 30 31 32 33 34 35 36 37 38 39 40 41 42 43 44 45 46 47 48 49 50
000
ASUS44 KMAF 210910
RWRMAF
MIDLAND AREA WEATHER ROUNDUP
NATIONAL WEATHER SERVICE MIDLAND TX
300 AM CST SUN DEC 21 2014

...IN SOUTHWEST TEXAS AND SOUTHEAST NEW MEXICO...

CITY           SKY/WX    TMP DP  RH WIND       PRES   REMARKS
ALPINE         CLEAR     44  28  51 S7        30.11S
ANDREWS        CLOUDY    42  42 100 SW10      30.01R FOG     WCI  36
ARTESIA        MOCLDY    34  23  64 S7        29.99S WCI  28
BIG SPRING     CLOUDY    47  42  82 S14       30.03F
CARLSBAD       MOCLDY    34  24  67 CALM      29.98F
DRYDEN           N/A     49  48  97 SE5       30.05F
FORT STOCKTON  CLEAR     42  32  67 SW10      30.01F WCI  36
GUAD PASS      NOT AVBL
HOBBS          FOG       39  39 100 SW9       30.00F VSB 1/4 WCI  33
MARFA          CLEAR     25  21  86 SE3       30.08F
MIDLAND AIRPK  CLOUDY    46  43  90 S13       30.01F FOG     WCI  40
MIDLAND INTL   CLOUDY    42  40  92 S6        30.00F FOG     WCI  38
ODESSA         CLOUDY    45  42  89 S12       30.00F FOG     WCI  39
PECOS          CLEAR     36  26  68 CALM      30.00F
PRESIDIO       FAIR      41  31  68 N7        30.06S WCI  36
SEMINOLE       CLOUDY    41  41  99 SW10      30.01S FOG     WCI  35
SNYDER         CLOUDY    44  42  91 S8        30.02F WCI  40
WINK           FOG       38  35  89 CALM      30.00S VSB 1/4
$$
...OTHER STATIONS IN TEXAS...

CITY           SKY/WX    TMP DP  RH WIND       PRES   REMARKS
ABILENE        MOCLDY    43  40  89 S10       30.04F WCI  37
AMARILLO       CLOUDY    39  37  92 S16       29.92F FOG     WCI  30
AUSTIN         CLOUDY    50  48  93 SE5       30.13F
BROWNSVILLE    CLOUDY    58  55  90 NW8       30.07F
CORPUS CHRISTI CLOUDY    54  50  86 NE12      30.10F
DALLAS FTW     CLOUDY    47  44  90 S6        30.14S
DEL RIO        CLOUDY    50  45  83 SE9       30.09F
EL PASO        CLOUDY    42  27  55 NW3       30.05S
HOUSTON INT    CLOUDY    50  46  86 NE5       30.16S
LUBBOCK        FOG       42  41  96 SW15      29.97F VSB 3/4 WCI  34
SAN ANGELO     CLOUDY    50  44  80 SW14      30.05F
SAN ANTONIO    CLOUDY    52  48  86 SE6       30.12F
WACO           CLOUDY    48  45  89 SE8       30.15F
WICHITA FALLS  NOT AVBL
$$
...OTHER LOCATIONS IN NEW MEXICO...

CITY           SKY/WX    TMP DP  RH WIND       PRES   REMARKS
ALAMAGORDO     CLOUDY    32  23  69 E7        30.06S WCI  26
ALBUQUERQUE    MOCLDY    35  27  72 CALM      30.08F
CANNON AFB     CLOUDY    38  21  50 W14       29.92F WCI  30
CLOVIS         CLOUDY    36  21  55 W10       29.92S WCI  28
HOLLOMAN AFB   MOCLDY    32  26  78 CALM      30.06R
ROSWELL        MOCLDY    32  24  72 CALM      29.98S
RUIDOSO        CLOUDY    32  16  51 CALM      30.06S
SANTA FE       PTCLDY    32  23  69 N16       30.03F WCI  21
TRUTH OR CONSE CLEAR     35  25  66 W8        30.06F WCI  29
TUCUMCARI      PTCLDY    30  19  63 W7        29.89S WCI  23
$$


USA.gov is the U.S. government's official web portal to all federal, state and local government web resources and services.